STARLINK-2695 (48644 NORAD) Tracking and Keplerian Element Data

This shows tracking and keplerian element data for the satellite.

Feedback or suggestion? Click here.




ElementValue
Catalog48644
NameSTARLINK-2695
Epoch Orbit2239
Epoch Day288.05239574
Epoch Year2021
RAAN134.0813
Inclination53.0549
Eccentricity0.0001824
Argument of Perigee81.3125
Mean Anonmoly278.807
Mean Motion15.06385755
Decay Rate-4.82E-06
L11 48644U 21044G 21288.05239574 -.00000482 00000-0 -13461-4 0 9998
L22 48644 53.0549 134.0813 0001824 81.3125 278.8070 15.06385755 22392

Live tracking and technical data element details for STARLINK-2695 (NORAD 48644). STARLINK-2695 can be tracked NOW for your location showing map with azimuth and elevation plus other details from your city location.

Track the satellite on the map from your city or location and see movement details for azimuth, elevation, latitude, longitude, range, height, and movement on the map or in text.







IsCatalogInMostPopularTable: catalog: 48644, numindb: 34
Update: records affected: 1



GetName: 48644 STARLINK-2695

Hit Count: updated at: Tue, 19 Oct 2021 08:54:06 GMT